| time (UTC) | temp C | wind direction | speed KPH | gust KPH | rain 1hr cm | rain 24hr cm | rain mn cm | humidity % | barometer mb |
| 20260502163035 | 30 | 55 | 14.5 | 25.7 | 0.00 | 0.00 | 0.00 | 24 | 1013.2 |
| 20260502161534 | 29 | 20 | 6.4 | 16.1 | 0.00 | 0.00 | 0.00 | 26 | 1013.2 |
| 20260502151504 | 25 | 288 | 1.6 | 3.2 | 0.00 | 0.00 | 0.00 | 23 | 1013.1 |
| 20260502123020 | 20 | 313 | 1.6 | 4.8 | 0.00 | 0.00 | 0.00 | 28 | 1011.1 |
| 20260502121518 | 20 | 195 | 1.6 | 3.2 | 0.00 | 0.00 | 0.00 | 27 | 1011.1 |
| 20260502114513 | 20 | 269 | 1.6 | 6.4 | 0.00 | 0.00 | 0.00 | 26 | 1010.8 |
| 20260502113007 | 21 | 291 | 0.0 | 6.4 | 0.00 | 0.00 | 0.00 | 25 | 1010.8 |
| 20260502110009 | 22 | 197 | 1.6 | 12.9 | 0.00 | 0.00 | 0.00 | 27 | 1010.6 |
| 20260502104523 | 22 | 359 | 4.8 | 8.0 | 0.00 | 0.00 | 0.00 | 26 | 1010.5 |
| 20260502103023 | 22 | 11 | 4.8 | 9.7 | 0.00 | 0.00 | 0.00 | 26 | 1010.5 |
| 20260502091512 | 21 | 340 | 6.4 | 11.3 | 0.00 | 0.00 | 0.00 | 26 | 1010.0 |
| 20260502071512 | 23 | 179 | 0.0 | 3.2 | 0.00 | 0.00 | 0.00 | 22 | 1010.1 |
| 20260502064533 | 23 | 174 | 1.6 | 3.2 | 0.00 | 0.00 | 0.00 | 21 | 1009.9 |
| 20260502063029 | 24 | 200 | 1.6 | 4.8 | 0.00 | 0.00 | 0.00 | 21 | 1010.0 |
| 20260502060021 | 24 | 171 | 1.6 | 4.8 | 0.00 | 0.00 | 0.00 | 20 | 1009.8 |
| 20260502054522 | 25 | 191 | 0.0 | 4.8 | 0.00 | 0.00 | 0.00 | 19 | 1009.8 |
| 20260502053020 | 25 | 177 | 3.2 | 4.8 | 0.00 | 0.00 | 0.00 | 19 | 1009.7 |
| 20260502051521 | 25 | 172 | 3.2 | 4.8 | 0.00 | 0.00 | 0.00 | 19 | 1009.7 |
| 20260502050028 | 25 | 196 | 1.6 | 3.2 | 0.00 | 0.00 | 0.00 | 19 | 1009.7 |
| 20260502044512 | 26 | 175 | 3.2 | 6.4 | 0.00 | 0.00 | 0.00 | 18 | 1009.5 |
| 20260502043026 | 26 | 167 | 3.2 | 6.4 | 0.00 | 0.00 | 0.00 | 18 | 1009.3 |
| 20260502041528 | 26 | 176 | 1.6 | 3.2 | 0.00 | 0.00 | 0.00 | 18 | 1009.2 |
| 20260502040022 | 26 | 172 | 0.0 | 3.2 | 0.00 | 0.00 | 0.00 | 18 | 1008.9 |
| 20260502034523 | 27 | 172 | 0.0 | 3.2 | 0.00 | 0.00 | 0.00 | 18 | 1008.8 |
| 20260502033022 | 27 | 198 | 1.6 | 3.2 | 0.00 | 0.00 | 0.00 | 18 | 1008.7 |
| 20260502030024 | 28 | 214 | 0.0 | 3.2 | 0.00 | 0.00 | 0.00 | 17 | 1008.2 |
| 20260502024513 | 29 | 217 | 0.0 | 3.2 | 0.00 | 0.00 | 0.00 | 16 | 1008.0 |
| 20260502023028 | 30 | 221 | 1.6 | 3.2 | 0.00 | 0.00 | 0.00 | 14 | 1008.0 |
| 20260502021525 | 30 | 266 | 1.6 | 3.2 | 0.00 | 0.00 | 0.00 | 14 | 1007.8 |
| 20260502020024 | 31 | 260 | 1.6 | 6.4 | 0.00 | 0.00 | 0.00 | 13 | 1007.6 |
| 20260502014529 | 31 | 279 | 3.2 | 8.0 | 0.00 | 0.00 | 0.00 | 14 | 1007.6 |
| 20260502013023 | 31 | 246 | 1.6 | 8.0 | 0.00 | 0.00 | 0.00 | 16 | 1007.6 |
| 20260502011522 | 32 | 269 | 4.8 | 8.0 | 0.00 | 0.00 | 0.00 | 15 | 1007.6 |
| 20260502004541 | 32 | 215 | 0.0 | 9.7 | 0.00 | 0.00 | 0.00 | 16 | 1007.7 |
| 20260502003026 | 32 | 208 | 4.8 | 9.7 | 0.00 | 0.00 | 0.00 | 16 | 1007.7 |
| 20260502001532 | 32 | 323 | 4.8 | 11.3 | 0.00 | 0.00 | 0.00 | 16 | 1007.8 |
| 20260502000029 | 32 | 350 | 6.4 | 17.7 | 0.00 | 0.00 | 0.00 | 16 | 1007.9 |
| 20260501234524 | 33 | 360 | 3.2 | 9.7 | 0.00 | 0.00 | 0.00 | 16 | 1008.0 |
| 20260501233023 | 32 | 300 | 3.2 | 11.3 | 0.00 | 0.00 | 0.00 | 16 | 1008.2 |
| 20260501231525 | 32 | 285 | 6.4 | 17.7 | 0.00 | 0.00 | 0.00 | 15 | 1008.2 |
| 20260501230024 | 32 | 285 | 6.4 | 16.1 | 0.00 | 0.00 | 0.00 | 17 | 1008.3 |
| 20260501223022 | 32 | 329 | 4.8 | 11.3 | 0.00 | 0.00 | 0.00 | 20 | 1008.6 |
| 20260501221528 | 32 | 268 | 8.0 | 12.9 | 0.00 | 0.00 | 0.00 | 21 | 1008.8 |
| 20260501220032 | 32 | 274 | 8.0 | 14.5 | 0.00 | 0.00 | 0.00 | 22 | 1009.0 |
| 20260501214518 | 32 | 273 | 4.8 | 9.7 | 0.00 | 0.00 | 0.00 | 22 | 1009.2 |
| 20260501213028 | 31 | 129 | 6.4 | 12.9 | 0.00 | 0.00 | 0.00 | 21 | 1009.5 |
| 20260501211509 | 32 | 305 | 6.4 | 16.1 | 0.00 | 0.00 | 0.00 | 20 | 1009.9 |
| 20260501210017 | 30 | 266 | 3.2 | 12.9 | 0.00 | 0.00 | 0.00 | 22 | 1010.0 |
| 20260501204526 | 31 | 282 | 6.4 | 14.5 | 0.00 | 0.00 | 0.00 | 21 | 1010.1 |
| 20260501203019 | 30 | 134 | 3.2 | 25.7 | 0.00 | 0.00 | 0.00 | 22 | 1010.1 |
| 20260501201523 | 30 | 257 | 4.8 | 11.3 | 0.00 | 0.00 | 0.00 | 23 | 1010.4 |
| 20260501200020 | 29 | 1 | 3.2 | 12.9 | 0.00 | 0.00 | 0.00 | 25 | 1010.4 |
| 20260501193015 | 30 | 84 | 4.8 | 6.4 | 0.00 | 0.00 | 0.00 | 24 | 1010.9 |
| 20260501191510 | 30 | 146 | 4.8 | 11.3 | 0.00 | 0.00 | 0.00 | 24 | 1011.1 |
| 20260501190010 | 30 | 122 | 6.4 | 11.3 | 0.00 | 0.00 | 0.00 | 26 | 1011.4 |
| 20260501184521 | 28 | 228 | 1.6 | 9.7 | 0.00 | 0.00 | 0.00 | 28 | 1011.5 |
| 20260501183022 | 28 | 240 | 3.2 | 11.3 | 0.00 | 0.00 | 0.00 | 27 | 1011.7 |
| 20260501181520 | 28 | 257 | 3.2 | 6.4 | 0.00 | 0.00 | 0.00 | 27 | 1011.8 |